This demonstration page uses our WeatherBlox Daily Observations layout. Learn more.

Left ArrowRight Arrow

Hourly Observations for January 12, 2017

Temp ( °F °C ) Dew Point ( °F °C ) Humidity (%) Winds ( mph kmh ) Pressure ( in mb ) Visibility ( mi km ) Precip ( " mm )
12:15 am 00:15 Clear 11 -11.5 6 -14.5 79 79 N 10 17 30.15 1021 10 16 0.00 0.00
12:35 am 00:35 Clear 11 -11.9 5 -15 78 78 N 8 13 30.15 1021 10 16 0.00 0.00
12:55 am 00:55 Clear 10 -12.2 4 -15.3 78 78 NNE 8 13 30.18 1022 10 16 0.00 0.00
1:15 am 01:15 Clear 10 -12.5 5 -15.1 81 81 N 6 9 30.21 1023 10 16 0.00 0.00
1:35 am 01:35 Clear with Light Snow 10 -12.5 5 -15 82 82 Calm 30.21 1023 10 16 0.00 0.00
1:55 am 01:55 Clear with Light Snow 9 -12.8 5 -15.2 82 82 NNE 3 6 30.21 1023 10 16 0.00 0.00
2:15 am 02:15 Clear 8 -13.1 5 -15.2 84 84 NNE 3 6 30.24 1024 10 16 0.00 0.00
2:35 am 02:35 Clear 9 -13 4 -15.3 83 83 N 3 6 30.24 1024 10 16 0.00 0.00
2:55 am 02:55 Clear 9 -13 5 -15.2 84 84 NE 6 9 30.24 1024 10 16 0.00 0.00
3:15 am 03:15 Clear 9 -13 4 -15.4 82 82 ENE 6 9 30.24 1024 10 16 0.00 0.00
3:35 am 03:35 Clear 8 -13.3 3 -15.9 81 81 NE 5 7 30.24 1024 10 16 0.00 0.00
3:55 am 03:55 Clear 8 -13.5 3 -16 82 82 NE 3 6 30.24 1024 10 16 0.00 0.00
4:15 am 04:15 Clear 8 -13.6 3 -16.1 82 82 NNE 3 6 30.27 1025 10 16 0.00 0.00
4:35 am 04:35 Clear 7 -14.1 2 -16.5 82 82 NNE 3 6 30.27 1025 10 16 0.00 0.00
4:55 am 04:55 Clear 7 -14.1 2 -16.4 83 83 Calm 30.27 1025 10 16 0.00 0.00
5:15 am 05:15 Clear 7 -14.1 2 -16.4 83 83 Calm 30.30 1026 10 16 0.00 0.00
5:35 am 05:35 Clear 5 -14.8 1 -17.1 83 83 Calm 30.30 1026 10 16 0.00 0.00
5:55 am 05:55 Clear 7 -14.1 3 -16.2 84 84 Calm 30.30 1026 10 16 0.00 0.00
6:15 am 06:15 Clear 6 -14.3 2 -16.4 84 84 Calm 30.30 1026 10 16 0.00 0.00
6:35 am 06:35 Clear 6 -14.6 2 -16.9 83 83 WNW 3 6 30.36 1028 10 16 0.00 0.00
6:55 am 06:55 Clear 5 -15 1 -17.1 84 84 N 3 6 30.36 1028 10 16 0.00 0.00
7:15 am 07:15 Clear 6 -14.5 2 -16.6 84 84 Calm 30.36 1028 10 16 0.00 0.00
7:35 am 07:35 Clear 6 -14.5 2 -16.5 85 85 Calm 30.39 1029 10 16 0.00 0.00
7:55 am 07:55 Clear 6 -14.7 2 -16.9 84 84 Calm 30.39 1029 10 16 0.00 0.00
8:15 am 08:15 Sunny 6 -14.5 2 -16.6 84 84 NNW 3 6 30.39 1029 10 16 0.00 0.00
8:35 am 08:35 Sunny 8 -13.2 4 -15.5 83 83 Calm 30.39 1029 10 16 0.00 0.00
8:55 am 08:55 Sunny 9 -12.6 5 -15.2 81 81 Calm 30.39 1029 10 16 0.00 0.00
9:15 am 09:15 Sunny 10 -12.2 5 -15.1 79 79 N 5 7 30.39 1029 10 16 0.00 0.00
9:35 am 09:35 Sunny 11 -11.7 5 -15 77 77 Calm 30.42 1030 10 16 0.00 0.00
9:55 am 09:55 Sunny 11 -11.4 5 -14.8 76 76 Calm 30.45 1031 10 16 0.00 0.00
10:15 am 10:15 Sunny 13 -10.6 6 -14.3 75 75 NW 5 7 30.45 1031 10 16 0.00 0.00
10:35 am 10:35 Sunny 14 -10.2 6 -14.3 72 72 Calm 30.48 1032 10 16 0.00 0.00
10:55 am 10:55 Sunny 15 -9.2 7 -13.7 70 70 NNW 7 11 30.45 1031 10 16 0.00 0.00
11:15 am 11:15 Sunny 16 -8.7 7 -13.7 67 67 NNW 7 11 30.48 1032 10 16 0.00 0.00
11:35 am 11:35 Sunny 18 -7.7 9 -12.9 67 67 N 6 9 30.48 1032 10 16 0.00 0.00
11:55 am 11:55 Sunny 20 -6.8 9 -12.9 62 62 NNW 8 13 30.45 1031 10 16 0.00 0.00
12:15 pm 12:15 Sunny 20 -6.6 9 -12.8 62 62 N 6 9 30.42 1030 10 16 0.00 0.00
12:35 pm 12:35 Sunny 21 -5.9 9 -12.7 59 59 N 3 6 30.42 1030 10 16 0.00 0.00
12:55 pm 12:55 Sunny 22 -5.4 10 -12.3 59 59 N 12 19 30.42 1030 10 16 0.00 0.00
1:15 pm 13:15 Sunny 22 -5.3 10 -12.5 57 57 N 13 20 30.42 1030 10 16 0.00 0.00
1:35 pm 13:35 Sunny 23 -5 10 -12.3 57 57 N 18 30 30.42 1030 10 16 0.00 0.00
1:55 pm 13:55 Sunny 23 -5.1 10 -12.5 56 56 NNE 14 22 30.42 1030 10 16 0.00 0.00
2:15 pm 14:15 Sunny 22 -5.5 10 -12.4 59 59 NNE 14 22 30.42 1030 10 16 0.00 0.00
2:35 pm 14:35 Sunny 22 -5.5 10 -12.5 58 58 NNE 9 15 30.45 1031 10 16 0.00 0.00
2:55 pm 14:55 Sunny 22 -5.6 10 -12.5 59 59 NNE 12 19 30.45 1031 10 16 0.00 0.00
3:15 pm 15:15 Sunny 22 -5.6 10 -12.2 60 60 NE 12 19 30.45 1031 10 16 0.00 0.00
3:35 pm 15:35 Sunny 22 -5.5 10 -12.1 60 60 NNE 8 13 30.48 1032 10 16 0.00 0.00
3:55 pm 15:55 Sunny 22 -5.6 10 -12 61 61 NNE 8 13 30.48 1032 10 16 0.00 0.00
4:15 pm 16:15 Sunny 22 -5.7 10 -12 62 62 NNE 8 13 30.48 1032 10 16 0.00 0.00
4:35 pm 16:35 Sunny 22 -5.8 11 -11.9 62 62 NNE 7 11 30.50 1033 10 16 0.00 0.00
4:55 pm 16:55 Sunny 22 -5.6 10 -12.1 61 61 NNE 9 15 30.50 1033 10 16 0.00 0.00
5:15 pm 17:15 Sunny 21 -6.2 9 -12.6 61 61 NNE 8 13 30.50 1033 10 16 0.00 0.00
5:35 pm 17:35 Clear 20 -6.6 10 -12.5 63 63 NNE 7 11 30.53 1034 10 16 0.00 0.00
5:55 pm 17:55 Clear 19 -7 10 -12.5 65 65 NE 7 11 30.53 1034 10 16 0.00 0.00
6:15 pm 18:15 Clear 19 -7.1 10 -12.5 66 66 NE 5 7 30.53 1034 10 16 0.00 0.00
6:35 pm 18:35 Clear 19 -7.2 10 -12.2 68 68 ENE 3 6 30.56 1035 10 16 0.00 0.00
6:55 pm 18:55 Clear 19 -7 11 -11.8 69 69 Calm 30.56 1035 10 16 0.00 0.00
7:15 pm 19:15 Partly Cloudy 19 -7 10 -12 68 68 ENE 5 7 30.59 1036 10 16 0.00 0.00
7:55 pm 19:55 Partly Cloudy 19 -7.1 10 -12 68 68 ENE 7 11 30.56 1035 10 16 0.00 0.00
8:15 pm 20:15 Clear 19 -7.5 10 -12 70 70 NE 5 7 30.56 1035 10 16 0.00 0.00
8:35 pm 20:35 Clear 19 -7.5 10 -12 70 70 NE 6 9 30.56 1035 10 16 0.00 0.00
8:55 pm 20:55 Clear 19 -7.5 10 -12 70 70 ENE 5 7 30.56 1035 10 16 0.00 0.00
9:15 pm 21:15 Clear 19 -7.5 10 -12 70 70 E 3 6 30.59 1036 10 16 0.00 0.00
9:35 pm 21:35 Clear 19 -7.5 10 -12 70 70 E 3 6 30.59 1036 10 16 0.00 0.00
9:55 pm 21:55 Clear 19 -7.5 11 -11.8 72 72 ENE 5 7 30.59 1036 10 16 0.00 0.00
10:35 pm 22:35 Partly Cloudy 19 -7.3 10 -12.1 69 69 NE 7 11 30.59 1036 10 16 0.00 0.00
10:55 pm 22:55 Partly Cloudy 19 -7.3 10 -12.3 68 68 E 7 11 30.59 1036 10 16 0.00 0.00
11:15 pm 23:15 Partly Cloudy 19 -7.3 10 -12.5 67 67 E 6 9 30.62 1037 10 16 0.00 0.00
11:35 pm 23:35 Partly Cloudy 19 -7.3 9 -12.6 66 66 E 7 11 30.62 1037 10 16 0.00 0.00
11:55 pm 23:55 Partly Cloudy 19 -7.3 9 -12.6 66 66 ENE 7 11 30.59 1036 10 16 0.00 0.00

Powered by AerisWeather